Regional Weather Roundup
Issued by NWS

Home | Current Version | Previous Version | Text Only | Print | Product List | Glossary On
Versions: 1 2 3 4 5 6 7 8 9 10 11 12 13 14 15 16 17 18 19 20 21 22 23 24 25 26 27 28 29 30 31 32 33 34 35 36 37 38 39 40 41 42 43 44 45 46 47 48 49 50
192
ASUS44 KFWD 170810
RWRTX
NORTH TEXAS HOURLY WEATHER ROUNDUP
NATIONAL WEATHER SERVICE FORT WORTH TX
200 AM CST SUN DEC 17 2017

NOTE: "FAIR" INDICATES FEW OR NO CLOUDS BELOW 12,000 FEET WITH NO
SIGNIFICANT WEATHER AND/OR OBSTRUCTIONS TO VISIBILITY.

TXZ118-119-170900-
DALLAS/FORT WORTH METROPLEX

CITY           SKY/WX    TMP DP  RH WIND       PRES   REMARKS
DFW AIRPORT    CLOUDY    46  44  93 SE8       30.00F
DALLAS LOVE    CLOUDY    45  43  93 SE12      30.02F WCI  39
FTW MEACHAM    CLOUDY    45  44  97 S10       30.02R WCI  40
DAL-EXECUTIVE  CLOUDY    44  43  96 SE9       30.01F WCI  39
FTW-NAS-JRB    CLOUDY    45  42  89 S7        30.03R
FTW-SPINKS     CLOUDY    43  41  95 S5        30.04S FOG
ARLINGTON      MOCLDY    42  42 100 SE6       30.02R WCI  38
GRAND PRAIRIE  CLOUDY    44  44 100 SE3       30.04R
ADDISON        CLOUDY    44  42  95 SE9       30.02F WCI  39
MESQUITE       CLOUDY    43  42  97 E3        30.04F
LANCASTER      MOCLDY    42  42  97 CALM      30.04F
$$

TXZ091>094-102>105-117-120-121-131>134-170900-
NORTH CENTRAL TEXAS

CITY           SKY/WX    TMP DP  RH WIND       PRES   REMARKS
SHRMAN/DENISON CLOUDY    43  42  96 SE6       30.02S WCI  39
GAINESVILLE    CLOUDY    42  41  95 S10       30.02R WCI  36
BOWIE          CLOUDY    42  41  96 S6        30.00R WCI  39
BRIDGEPORT     CLOUDY    44  44 100 S5        30.03R
DECATUR        CLOUDY    43  41  94 SE8       30.00R WCI  38
DENTON         CLOUDY    43  43 100 S7        30.01F WCI  39
MCKINNEY       LGT RAIN  43  43 100 SE8       30.02F WCI  38
BONHAM         CLOUDY    42  41  98 SE5       30.04F WCI  39
GREENVILLE     CLOUDY    46  45  93 CALM      30.05F
ROCKWALL       CLOUDY    43  43 100 MISG      30.04F
TERRELL        CLOUDY    44  42  93 NE3       30.04F
WAXAHACHIE     CLOUDY    42  42 100 CALM      30.03F FOG
CLEBURNE       CLOUDY    43  43 100 S7        30.04R FOG     WCI  39
GRANBURY       CLOUDY    45  42  91 S3        30.05R
$$

TXZ083>090-098>101-113>116-127>130-139>142-154-155-170900-
WESTERN NORTH TEXAS

CITY           SKY/WX    TMP DP  RH WIND       PRES   REMARKS
WICHITA FALLS  CLOUDY    44  41  89 S13       29.97R WCI  38
WF-KICKAPOO    CLOUDY    45  42  89 S10       30.00R WCI  39
VERNON         CLOUDY    46  37  72 SE9       29.95R
ABILENE        CLOUDY    43  41  93 S16G23    29.94F WCI  35
ABILENE-DYESS  CLOUDY    43  41  91 S18G24    29.93R WCI  35
GRAHAM           N/A     44  32  63 SE6       29.98R
BRECKENRIDGE   CLOUDY    47  43  86 S9        29.97F
CISCO          CLOUDY    45  43  93 S16       29.97F WCI  37
EASTLAND       CLOUDY    44  42  95 S9        29.98F WCI  39
RANGER         CLOUDY    42  42 100 S8        29.99F FOG     WCI  37
MINERAL WELLS  CLOUDY    43  41  93 S8        30.01R WCI  38
STEPHENVILLE   CLOUDY    42  40  93 S6        30.04R WCI  38
COMANCHE       CLOUDY    43  43 100 CALM      30.01F FOG
COLEMAN        CLOUDY    45  42  88 S10       29.98R WCI  40
$$

TXZ143>147-156>162-174-175-170900-
CENTRAL TEXAS

CITY           SKY/WX    TMP DP  RH WIND       PRES   REMARKS
WACO           FOG       40  39  97 CALM      30.04R VSB 1/2
WACO-MCGREGOR  CLEAR     41  40  96 NW12      30.04S FOG     WCI  34
HILLSBORO      CLOUDY    42  42  99 CALM      30.02S FOG
CORSICANA      CLOUDY    44  44 100 CALM      30.05F
MEXIA          CLOUDY    41  40  96 CALM      30.02S
HEARNE         FOG       42  42 100 W3        30.07R VSB 1/4
CAMERON        CLOUDY    45  44  97 CALM      30.05S
TEMPLE         PTCLDY    42  41  96 SE3       30.03F FOG
KILLEEN        CLOUDY    42  42  99 SE6       30.00F WCI  38
KILLEEN-SKYLRK CLOUDY    42  42 100 SE5       30.02F WCI  39
FORT HOOD      CLOUDY    41  41 100 SE5       29.97F WCI  38
GATESVILLE     CLOUDY    43  43 100 CALM      30.03F FOG
HAMILTON       CLOUDY    42  42 100 S5        30.02S FOG     WCI  39
LAMPASAS       CLOUDY    42  41  98 CALM      30.00F FOG
$$

TXZ095>097-106>112-122>126-135>138-148>153-164>167-170900-
EAST TEXAS

CITY           SKY/WX    TMP DP  RH WIND       PRES   REMARKS
PARIS          LGT RAIN  43  42  97 SW7       30.07R WCI  39
SULPHUR SPRNGS CLOUDY    45  44  98 W3        30.09R
MOUNT PLEASANT CLOUDY    44  43  97 SE5       30.07S
GILMER         CLOUDY    43  43  99 CALM      30.04R
MINEOLA        LGT RAIN  43  43 100 CALM      30.05S
TYLER          CLOUDY    45  44  97 CALM      30.03F
LONGVIEW       CLOUDY    45  45 100 CALM      30.04R
MARSHALL       CLOUDY    45  43  93 CALM      30.05F
ATHENS         MOCLDY    41  41 100 CALM      30.02F
PALESTINE      PTCLDY    44  42  95 W3        30.05R
JACKSONVILLE   CLOUDY    44  44  99 E3        30.04S
HENDERSON      CLOUDY    45  44  96 CALM      30.05R
CENTER         RAIN      43  42  95 NE6       30.06F WCI  40
NACOGDOCHES    CLOUDY    44  43  96 VRB3      30.04F
LUFKIN         CLOUDY    45  44  97 NE5       30.03S
$$

SUPPLEMENTAL OBSERVATIONS (NWS FORT WORTH AREA)

CITY           SKY/WX    TMP DP  RH WIND       PRES   REMARKS
CADDO GRASSLND   N/A     43  41  93 SE3         N/A
PAT MAYSE LAKE   N/A     43  41  93 S5          N/A
LBJ GRASSLAND    N/A     43  39  87 S8          N/A  WCI  38
POSSUM KINGDOM   N/A     45  41  87 SE8         N/A
GRANBURY         N/A     45  41  87 S8G16       N/A
MCGREGOR         N/A     39  37  93 CALM        N/A
TEMPLE           N/A     43  41  93 E5          N/A
$$

SUPPLEMENTAL OBSERVATIONS (NWS NORMAN AREA)

CITY           SKY/WX    TMP DP  RH WIND       PRES   REMARKS
GOODLETT         N/A     41  37  86 SE9       29.92R WCI  36
ODELL            N/A     44  40  85 SE12      29.95R WCI  38
CROWELL          N/A     41  38  88 S9        29.94R WCI  35
KNOX CITY        N/A     42  38  86 SE10      29.94S WCI  36
SEYMOUR          N/A     46  40  81 SE8       29.96R
MILLERS CREEK    N/A     46  41  81 SE8         N/A
$$

SUPPLEMENTAL OBSERVATIONS (NWS SAN ANGELO AREA)

CITY           SKY/WX    TMP DP  RH WIND       PRES   REMARKS
WEINERT          N/A     45  39  81 S13       29.94F WCI  39
HASKELL          N/A     44  39  83 S10       29.93F WCI  38
THROCKMORTON     N/A     45  41  86 S8        29.96F
STAMFORD         N/A     44  40  88 S17       29.94S WCI  36
CLYDE            N/A     42  41  93 S18       29.95S WCI  34
HAMBY            N/A     45  39  81 S17         N/A  WCI  37
IVIE RESERVOIR   N/A     45  41  87 S7          N/A
COLORADO BEND    N/A     45  43  93 SE5         N/A
$$

SUPPLEMENTAL OBSERVATIONS (NWS SHREVEPORT AREA)

CITY           SKY/WX    TMP DP  RH WIND       PRES   REMARKS
CLARKSVILLE      N/A     43  41  93 SE8         N/A  WCI  38
TEXARKANA        N/A     43  41  93 E5          N/A
LINDEN           N/A     43  41  93 NE8         N/A  WCI  38
GILMER           N/A     45  43  93 NE2G15      N/A
HENDERSON        N/A     45  43  93 CALM        N/A
LUFKIN           N/A     45  41  87 MISG        N/A
S SABINE NF      N/A     45  43  93 N3G12       N/A
$$

SUPPLEMENTAL OBSERVATIONS ARE A COLLECTION OF AUTOMATED INSTRUMENTS
THAT ARE MAINTAINED BY A VARIETY OF FEDERAL AND STATE AGENCIES.
CERTAIN ELEMENTS...SUCH AS HUMIDITY VALUES AND SUSTAINED WIND
SPEEDS...MAY BE APPROXIMATED.





USA.gov is the U.S. government's official web portal to all federal, state and local government web resources and services.